This is the latest recevied weather packets stored in our database for station/object AA7VG. If no packets are shown the sender has not sent any weather packets the latest 10 day(s).
| Time | Temp. | Humidity | Pressure | Rain* | Wind** | Luminosity | Snow |
|---|---|---|---|---|---|---|---|
| 1778001572 | 10.56° C | 33% | 1015.3 hPa | 0 mm | - | - | - |
| 1778001270 | 9.44° C | 35% | 1015.4 hPa | 0 mm | - | - | - |
| 1778000966 | 9.44° C | 36% | 1015.4 hPa | 0 mm | - | - | - |
| 1778000663 | 9.44° C | 35% | 1015.5 hPa | 0 mm | - | - | - |
| 1778000358 | 8.89° C | 36% | 1015.4 hPa | 0 mm | - | - | - |
| 1778000055 | 8.33° C | 36% | 1015.4 hPa | 0 mm | - | - | - |
| 1777999750 | 8.33° C | 37% | 1015.5 hPa | 0 mm | - | - | - |
| 1777999447 | 8.89° C | 35% | 1015.6 hPa | 0 mm | - | - | - |
| 1777999145 | 9.44° C | 36% | 1015.8 hPa | 0 mm | - | - | - |
| 1777998844 | 9.44° C | 34% | 1015.4 hPa | 0 mm | - | - | - |
| 1777998542 | 8.89° C | 36% | 1015.4 hPa | 0 mm | - | - | - |
| 1777998237 | 9.44° C | 35% | 1015.5 hPa | 0 mm | - | - | - |
| 1777997935 | 10° C | 35% | 1015.3 hPa | 0 mm | - | - | - |
| 1777997631 | 8.89° C | 36% | 1015.3 hPa | 0 mm | - | - | - |
| 1777997329 | 8.33° C | 38% | 1015.6 hPa | 0 mm | - | - | - |
| 1777997027 | 8.33° C | 39% | 1015.6 hPa | 0 mm | - | - | - |
| 1777996723 | 8.33° C | 38% | 1015.6 hPa | 0 mm | - | - | - |
| 1777996419 | 7.78° C | 39% | 1015.5 hPa | 0 mm | - | - | - |
| 1777996116 | 7.78° C | 40% | 1015.6 hPa | 0 mm | - | - | - |
| 1777995812 | 7.78° C | 40% | 1015.8 hPa | 0 mm | - | - | - |
| 1777995508 | 7.22° C | 39% | 1015.5 hPa | 0 mm | - | - | - |
| 1777995206 | 7.22° C | 42% | 1015.8 hPa | 0 mm | - | - | - |
| 1777994903 | 7.22° C | 42% | 1015.8 hPa | 0 mm | - | - | - |
| 1777994600 | 6.67° C | 42% | 1015.6 hPa | 0 mm | - | - | - |
| 1777994300 | 6.67° C | 42% | 1015.8 hPa | 0 mm | - | - | - |
* Rain latest hour (hover to see other rain measurements)
** Current wind speed in m/s (hover to see current wind gust speed)